Aspen, CO

1:06 AM MDT on May 22, 2018 (GMT -0600)
Aspen-Pitkin County / Sardy Field

Weather History for KASE - June, 2013

Change the Weather History Date:

Sunday, June 9, 2013

  Actual Average Record
Temperature  
Mean Temperature 60 °F 56 °F  
Max Temperature 81 °F 72 °F 86 °F (1985)
Min Temperature 39 °F 39 °F 28 °F (2008)
Degree Days  
Heating Degree Days 5 10  
Month to date heating degree days 80 98  
Since 1 June heating degree days 80 98  
Since 1 July heating degree days 8521 8743  
Cooling Degree Days 0 0  
Month to date cooling degree days 0 0  
Year to date cooling degree days 0 0  
Since 1 June cooling degree days 0 0  
Growing Degree Days 10 (Base 50)    
Moisture  
Dew Point 30 °F    
Average Humidity 42    
Maximum Humidity 70    
Minimum Humidity 13    
Precipitation  
Precipitation 0.00 in 0.03 in 0.50 in (1984)
Month to date precipitation 0.02 0.34  
Year to date precipitation 6.70 7.28  
Sea Level Pressure  
Sea Level Pressure 29.90 in    
Wind  
Wind Speed 7 mph (WSW)    
Max Wind Speed 16 mph    
Max Gust Speed 22 mph    
Visibility 10 miles    
Events      
T = Trace of Precipitation, MM = Missing Value Source: NWS Daily Summary

Daily Weather History Graph

Daily Weather History Graph

Search for Another Location

Airport or City:

Astronomy

Jun. 09, 2013 Rise Set
Actual Time 5:40 AM MDT 8:33 PM MDT
Civil Twilight 5:08 AM MDT 9:05 PM MDT
Nautical Twilight 4:28 AM MDT 9:45 PM MDT
Astronomical Twilight 3:42 AM MDT 10:31 PM MDT
Moon 6:39 AM MDT (6/9) 9:22 PM MDT (6/9)
Length of Visible Light 15h 56m
Length of Day
14h 52m
New Moon, 1% of the Moon is Illuminated
Jun 9
New Moon
Jun 16
First Quarter
Jun 23
Full
Jun 29
Last Quarter
Jul 8
New

Hourly Weather History & Observations

Time (MDT) Temp. Windchill Dew Point Humidity Pressure Visibility Wind Dir Wind Speed Gust Speed Precip Events Conditions
12:53 AM 48.9 °F - 34.0 °F 56% 29.86 in 10.0 mi South 5.8 mph - N/A   Clear
1:53 AM 45.0 °F 43.5 °F 34.0 °F 65% 29.89 in 10.0 mi SSW 3.5 mph - N/A   Clear
2:53 AM 45.0 °F 42.6 °F 33.1 °F 63% 29.91 in 10.0 mi South 4.6 mph - N/A   Clear
3:53 AM 43.0 °F 38.8 °F 32.0 °F 65% 29.92 in 10.0 mi SSW 6.9 mph - N/A   Clear
4:53 AM 41.0 °F 38.0 °F 32.0 °F 70% 29.94 in 10.0 mi South 4.6 mph - N/A   Clear
5:53 AM 39.9 °F 35.8 °F 30.9 °F 70% 29.97 in 10.0 mi SSW 5.8 mph - N/A   Clear
6:53 AM 46.0 °F - 32.0 °F 58% 29.96 in 10.0 mi Calm Calm - N/A   Clear
7:53 AM 52.0 °F - 32.0 °F 47% 29.96 in 10.0 mi ESE 4.6 mph - N/A   Clear
8:53 AM 59.0 °F - 30.9 °F 35% 29.95 in 10.0 mi Calm Calm - N/A   Clear
9:53 AM 66.0 °F - 28.0 °F 24% 29.93 in 10.0 mi Calm Calm - N/A   Clear
10:53 AM 70.0 °F - 25.0 °F 18% 29.91 in 10.0 mi Variable 3.5 mph - N/A   Clear
11:53 AM 73.9 °F - 28.0 °F 18% 29.91 in 10.0 mi NNW 9.2 mph - N/A   Clear
12:53 PM 77.0 °F - 28.9 °F 17% 29.88 in 10.0 mi North 9.2 mph - N/A   Clear
1:53 PM 77.0 °F - 26.1 °F 15% 29.90 in 10.0 mi NNW 8.1 mph 18.4 mph N/A   Clear
2:53 PM 79.0 °F - 25.0 °F 14% 29.87 in 10.0 mi NNW 6.9 mph 19.6 mph N/A   Clear
3:53 PM 81.0 °F - 24.1 °F 12% 29.86 in 10.0 mi NW 10.4 mph 18.4 mph N/A   Partly Cloudy
4:53 PM 80.1 °F - 27.0 °F 14% 29.86 in 10.0 mi NW 13.8 mph - N/A   Clear
5:53 PM 80.1 °F - 27.0 °F 14% 29.86 in 10.0 mi NNW 10.4 mph - N/A   Clear
6:53 PM 78.1 °F - 28.9 °F 17% 29.85 in 10.0 mi NNW 5.8 mph - N/A   Clear
7:53 PM 64.9 °F - 34.0 °F 32% 29.88 in 10.0 mi WSW 4.6 mph - N/A   Clear
8:53 PM 64.0 °F - 34.0 °F 33% 29.87 in 10.0 mi SSW 9.2 mph - N/A   Clear
9:53 PM 59.0 °F - 34.0 °F 39% 29.88 in 10.0 mi SSW 9.2 mph - N/A   Clear
10:53 PM 59.0 °F - 32.0 °F 36% 29.87 in 10.0 mi SSW 9.2 mph - N/A   Clear
11:53 PM 57.0 °F - 32.0 °F 39% 29.86 in 10.0 mi SW 9.2 mph - N/A   Clear